Regional Weather Roundup
Issued by NWS

Home | Current Version | Previous Version | Graphics & Text | Print | Product List | Glossary On
Versions: 1 2 3 4 5 6 7 8 9 10 11 12 13 14 15 16 17 18 19 20 21 22 23 24 25 26 27 28 29 30 31 32 33 34 35 36 37 38 39 40 41 42 43 44 45 46 47 48 49 50
069
ASUS45 KSLC 281610
RWRUT

UTAH REGIONAL WEATHER ROUNDUP
NATIONAL WEATHER SERVICE SALT LAKE CITY UT
1000 AM MDT WED SEP 28 2016

UTZ001>011-023>025-281700-

NORTHERN UTAH

CITY           SKY/WX    TMP DP  RH WIND       PRES   REMARKS
BRIGHAM CITY     N/A     58  49  73 CALM      30.21S
DUGWAY         SUNNY     61  50  66 SE2       30.22R
HILL AFB       SUNNY     61  44  53 E9        30.22R
LOGAN          SUNNY     55  48  77 N3        30.23R
OGDEN          SUNNY     66  45  46 N5        30.20R
PROVO AIRPORT  SUNNY     61  46  57 W3        30.24S
SALT LAKE CITY SUNNY     65  50  58 SE6       30.20R
VERNAL         SUNNY     59  47  64 VRB3      30.32R
WENDOVER       SUNNY     57  46  67 E8        30.21R
HEBER CITY     SUNNY     52  43  71 CALM      30.30S
WEST JORDAN    SUNNY     66  46  48 SE10      30.22S

$$

UTZ012>022-026-027-281700-

SOUTHERN/CENTRAL UTAH

CITY           SKY/WX    TMP DP  RH WIND       PRES   REMARKS
BLANDING       SUNNY     66  35  30 SE10      30.39R
BRYCE CANYON   CLOUDY    53  36  52 CALM      30.38R
CEDAR CITY     PTSUNNY   63  37  38 N3        30.25R
DELTA          SUNNY     61  45  55 NE3       30.23S
MILFORD        PTSUNNY   56  37  49 SW5       30.23R
MOAB/CYNLANDS  SUNNY     68  38  33 SE8       30.22S
PRICE          SUNNY     63  41  44 CALM      30.30R
ST GEORGE      MOSUNNY   70  43  37 CALM      30.14S

$$

REGIONAL REPORTS     COLORADO/ARIZONA

CITY           SKY/WX    TMP DP  RH WIND       PRES   REMARKS
CRAIG, CO      SUNNY     54  37  52 CALM      30.36F
GRAND JUNCTION SUNNY     66  39  37 SE14      30.27S
RIFLE          SUNNY     60  40  47 CALM      30.33S
MONTROSE       SUNNY     61  37  41 CALM      30.34S
CORTEZ         SUNNY     60  39  45 CALM      30.32S
PAGE, AZ       SUNNY     69  43  38 N3        30.20R
GRAND CANYON   SUNNY     64  44  48 E10G18    30.31S
KINGMAN        PTSUNNY   72  47  40 NW5       30.12R
FLAGSTAFF      CLOUDY    51  49  92 N3        30.35R

$$

REGIONAL REPORTS    NEVADA/IDAHO/WYOMING

CITY           SKY/WX    TMP DP  RH WIND       PRES   REMARKS
LAS VEGAS, NV  PTSUNNY   77  48  35 CALM      30.05R
ELY            MOSUNNY   57  33  40 S6        30.28S
ELKO           SUNNY     55  39  54 E6        30.20S
POCATELLO, ID  SUNNY     56  46  69 NE3       30.22R
BURLEY         SUNNY     56  47  71 NE10      30.16R
EVANSTON, WY   SUNNY     57  36  45 E10       30.37R
ROCK SPRINGS   SUNNY     57  39  51 E8        30.39R

$$




USA.gov is the U.S. government's official web portal to all federal, state and local government web resources and services.